Regional Weather Roundup
Issued by NWS Newport/Morehead, NC

Current Version | Previous Version | Text Only | Print | Product List | Glossary Off
Versions: 1 2 3 4 5 6 7 8 9 10 11 12 13 14 15 16 17 18 19 20 21 22 23 24 25 26 27 28 29 30 31 32 33 34 35 36 37 38 39 40 41 42 43 44 45 46 47 48 49 50
111 ASUS42 KMHX 030613 RWRMHX WEATHER ROUNDUP FOR EASTERN NORTH CAROLINA NATIONAL WEATHER SERVICE NEWPORT/MOREHEAD CITY NC 200 AM EDT TUE MAY 03 2016 NOTE: "FAIR" INDICATES FEW OR NO CLOUDS BELOW 12,000 FEET WITH NO SIGNIFICANT WEATHER AND/OR OBSTRUCTIONS TO VISIBILITY NCZ015>017-031-032-045>047-102-103-030700- NORTH COAST CITY SKY/WX TMP DP RH WIND PRES REMARKS EDENTON CLOUDY 71 70 98 SW9 29.88S ELIZABETH CITY CLOUDY 70 67 90 S10 29.86F KITTY HAWK CLOUDY 72 68 86 SW8G17 29.86F MANTEO NOT AVBL $$ NCZ045>047-081-094-103-104-030700- CENTRAL COAST CITY SKY/WX TMP DP RH WIND PRES REMARKS FRISCO CLOUDY 71 69 93 SW10 29.91F SWANQUARTER NOT AVBL $$ NCZ095-097-098-100-101-030700- SOUTHERN COAST CITY SKY/WX TMP DP RH WIND PRES REMARKS BEAUFORT PTCLDY 72 70 93 S16G24 29.91F CEDAR ISLAND NOT AVBL JACKSONVILLE CLOUDY 72 68 87 S7 29.89F PINEY ISLAND NOT AVBL WILMINGTON CLOUDY 73 68 84 S10 29.90F $$ NCZ011>013-027>030-043-044-078>080-089-090>093-098-030700- COASTAL PLAIN CITY SKY/WX TMP DP RH WIND PRES REMARKS AHOSKIE CLOUDY 66 63 89 CALM 29.86F CLINTON CLOUDY 67 67 99 CALM 29.89F ELIZABETHTOWN DRIZZLE 70 70 100 S5 29.89F GOLDSBORO NOT AVBL GREENVILLE CLOUDY 68 66 94 S7 29.89F HAVELOCK CLOUDY 73 69 87 SW14 29.91F KENANSVILLE MOCLDY 67 66 97 CALM 29.91F KINSTON CLOUDY 69 67 94 S13 29.88F NEW BERN MOCLDY 71 68 90 SW9 29.90F RICHLANDS CLOUDY 70 69 97 S7 29.90F ROCKY MOUNT CLOUDY 67 63 87 S7 29.86F WASHINGTON MOCLDY 69 67 93 S8 29.87F WHITEVILLE CLOUDY 73 69 90 S9 29.90F $$ AMZ130-135-150-152-154-156-158-170-250-252-270-ANZ085-086-088-633-658-670-030700- MARINE OBSERVATIONS STATION/POSITION TIME TEMP WIND PRES WAVE SWELL AIR SEA DIR/SP/G HT/PER HT/PER (UTC) (F) (DEG/KT/KT) (MB) (FT/S) (FT/S) CHESAPEAKE LIGHT 0600 66 290/ 14/ 15 1012.4 64 E VA BEACH 0550 60 54 200/ 16/ 17 1011.0 4/10 2/10 DUCK 0500 72 67 200/ 13/ 18 1011.5 2 E DUCK 0511 58 N/A 3/11 2/11 OREGON INLET 0500 71 72 190/ 18/ 20 1012.4 13E OREGON INLT 0600 61 N/A 4/ 5 2/ 9 HATTERAS CG 0500 72 70 210/ 11/ 14 1013.6 DIAMOND BUOY 0550 74 74 220/ 16/ 19 1012.9 4/10 2/10 CAPE LOOKOUT 0600 71 200/ 12/ 15 1012.8 BEAUFORT LAB 0500 72 69 210/ 11/ 16 1013.3 30 SE NEW RVR IN 0525 70 N/A 4/ 5 2/11 27 SE WRIGHTSVLE 0508 74 71 210/ 17/ 23 1014.0 5 SE WRIGHTSVLE NOT AVBL 225 S CAPE HAT 0550 74 74 160/ 16/ 17 1017.1 4/10 3/10 41 SE CHARLESTON 0550 76 75 200/ 14/ 17 1013.4 3/ 6 2/10 $$

USA.gov is the U.S. government's official web portal to all federal, state and local government web resources and services.